Time,TemperatureF,DewpointF,PressureIn,WindDirection,WindDirectionDegrees,WindSpeedMPH,WindSpeedGustMPH,Humidity,HourlyPrecipIn,Conditions,Clouds,dailyrainin,SoftwareType,DateUTC
2013-08-03 00:00:00,66.7,60.3,30.03,NE,45,3.0,7.0,80,0.00,,---,0.00,VWS V14.01,2013-08-03 05:00:00,
2013-08-03 00:10:00,66.5,60.2,30.04,NE,45,3.0,7.0,80,0.00,,---,0.00,VWS V14.01,2013-08-03 05:10:00,
2013-08-03 00:20:00,66.5,59.8,30.04,NE,45,4.0,8.0,79,0.00,,---,0.00,VWS V14.01,2013-08-03 05:20:00,
2013-08-03 00:21:00,66.5,60.0,30.04,NNE,17,2.0,10.0,79,0.00,,,0.00,weatherlink.com 1.10,2013-08-03 05:21:00,
2013-08-03 00:30:00,66.5,59.4,30.04,NE,45,4.0,10.0,78,0.00,,---,0.00,VWS V14.01,2013-08-03 05:30:00,
2013-08-03 00:36:00,66.7,59.0,30.05,NE,49,2.0,8.0,77,0.00,,,0.00,weatherlink.com 1.10,2013-08-03 05:36:00,
2013-08-03 00:40:00,66.7,58.9,30.05,NE,45,4.0,8.0,76,0.00,,---,0.00,VWS V14.01,2013-08-03 05:40:00,
2013-08-03 00:50:00,66.9,58.3,30.05,NE,45,4.0,10.0,74,0.00,,---,0.00,VWS V14.01,2013-08-03 05:50:00,
2013-08-03 00:51:00,67.0,58.0,30.05,East,90,2.0,10.0,74,0.00,,,0.00,weatherlink.com 1.10,2013-08-03 05:51:00,
2013-08-03 01:00:00,67.0,58.5,30.06,NE,45,4.0,9.0,74,0.00,,---,0.00,VWS V14.01,2013-08-03 06:00:00,
2013-08-03 01:06:00,67.1,58.0,30.05,ENE,60,6.0,10.0,73,0.00,,,0.00,weatherlink.com 1.10,2013-08-03 06:06:00,
2013-08-03 01:10:00,67.0,58.1,30.05,ENE,68,4.0,10.0,73,0.00,,---,0.00,VWS V14.01,2013-08-03 06:10:00,
2013-08-03 01:20:00,67.0,58.1,30.06,NE,45,4.0,8.0,73,0.00,,---,0.00,VWS V14.01,2013-08-03 06:20:00,
2013-08-03 01:21:00,67.0,58.0,30.06,NE,52,3.0,7.0,73,0.00,,,0.00,weatherlink.com 1.10,2013-08-03 06:21:00,
2013-08-03 01:30:00,67.0,58.1,30.06,NE,45,3.0,7.0,73,0.00,,---,0.00,VWS V14.01,2013-08-03 06:30:00,
2013-08-03 01:36:00,66.9,58.0,30.05,NE,53,4.0,7.0,73,0.00,,,0.00,weatherlink.com 1.10,2013-08-03 06:36:00,
2013-08-03 01:40:00,66.9,58.0,30.05,NE,45,3.0,7.0,73,0.00,,---,0.00,VWS V14.01,2013-08-03 06:40:00,
2013-08-03 01:50:00,66.9,58.0,30.05,NE,45,3.0,6.0,73,0.00,,---,0.00,VWS V14.01,2013-08-03 06:50:00,
2013-08-03 01:51:00,66.9,58.0,30.05,NNE,28,2.0,6.0,73,0.00,,,0.00,weatherlink.com 1.10,2013-08-03 06:51:00,
2013-08-03 02:00:00,66.8,57.9,30.04,NE,45,3.0,10.0,73,0.00,,---,0.00,VWS V14.01,2013-08-03 07:00:00,
2013-08-03 02:06:00,66.8,57.0,30.04,NE,39,5.0,10.0,72,0.00,,,0.00,weatherlink.com 1.10,2013-08-03 07:06:00,
2013-08-03 02:10:00,66.8,57.9,30.04,NE,45,4.0,7.0,73,0.00,,---,0.00,VWS V14.01,2013-08-03 07:10:00,
2013-08-03 02:20:00,66.7,57.8,30.04,NE,45,3.0,7.0,73,0.00,,---,0.00,VWS V14.01,2013-08-03 07:20:00,
2013-08-03 02:21:00,66.7,58.0,30.04,ENE,63,5.0,7.0,73,0.00,,,0.00,weatherlink.com 1.10,2013-08-03 07:21:00,
2013-08-03 02:30:00,66.6,57.7,30.04,NE,45,3.0,7.0,73,0.00,,---,0.00,VWS V14.01,2013-08-03 07:30:00,
2013-08-03 02:36:00,66.4,58.0,30.04,NE,38,4.0,7.0,73,0.00,,,0.00,weatherlink.com 1.10,2013-08-03 07:36:00,
2013-08-03 02:40:00,66.4,57.9,30.04,NE,45,3.0,6.0,74,0.00,,---,0.00,VWS V14.01,2013-08-03 07:40:00,
2013-08-03 02:50:00,66.1,57.6,30.05,NNE,22,2.0,6.0,74,0.00,,---,0.00,VWS V14.01,2013-08-03 07:50:00,
2013-08-03 02:51:00,65.8,57.0,30.05,NNE,16,1.0,6.0,74,0.00,,,0.00,weatherlink.com 1.10,2013-08-03 07:51:00,
2013-08-03 03:00:00,65.7,57.9,30.06,North,0,1.0,2.0,76,0.00,,---,0.00,VWS V14.01,2013-08-03 08:00:00,
2013-08-03 03:06:00,65.4,58.0,30.06,NE,48,2.0,4.0,76,0.00,,,0.00,weatherlink.com 1.10,2013-08-03 08:06:00,
2013-08-03 03:10:00,65.4,57.7,30.06,NNE,22,3.0,5.0,76,0.00,,---,0.00,VWS V14.01,2013-08-03 08:10:00,
2013-08-03 03:20:00,65.2,57.8,30.06,North,0,4.0,7.0,77,0.00,,---,0.00,VWS V14.01,2013-08-03 08:20:00,
2013-08-03 03:21:00,65.1,58.0,30.06,North,11,4.0,7.0,77,0.00,,,0.00,weatherlink.com 1.10,2013-08-03 08:21:00,
2013-08-03 03:30:00,65.2,57.8,30.06,NNE,22,3.0,7.0,77,0.00,,---,0.00,VWS V14.01,2013-08-03 08:30:00,
2013-08-03 03:36:00,65.1,58.0,30.06,NE,37,4.0,5.0,77,0.00,,,0.00,weatherlink.com 1.10,2013-08-03 08:36:00,
2013-08-03 03:40:00,65.1,57.7,30.06,NE,45,2.0,5.0,77,0.00,,---,0.00,VWS V14.01,2013-08-03 08:40:00,
2013-08-03 03:50:00,65.1,57.7,30.07,NNE,22,2.0,4.0,77,0.00,,---,0.00,VWS V14.01,2013-08-03 08:50:00,
2013-08-03 03:51:00,65.1,58.0,30.06,NE,49,1.0,4.0,78,0.00,,,0.00,weatherlink.com 1.10,2013-08-03 08:51:00,
2013-08-03 04:00:00,65.0,58.0,30.07,North,0,2.0,5.0,78,0.00,,---,0.00,VWS V14.01,2013-08-03 09:00:00,
2013-08-03 04:06:00,65.0,58.0,30.07,ENE,67,3.0,5.0,79,0.00,,,0.00,weatherlink.com 1.10,2013-08-03 09:06:00,
2013-08-03 04:10:00,65.0,58.3,30.07,NNE,22,2.0,6.0,79,0.00,,---,0.00,VWS V14.01,2013-08-03 09:10:00,
2013-08-03 04:20:00,64.9,58.6,30.07,NE,45,2.0,5.0,80,0.00,,---,0.00,VWS V14.01,2013-08-03 09:20:00,
2013-08-03 04:21:00,64.9,59.0,30.07,NE,46,2.0,5.0,80,0.00,,,0.00,weatherlink.com 1.10,2013-08-03 09:21:00,
2013-08-03 04:30:00,64.9,58.6,30.07,North,0,3.0,7.0,80,0.00,,---,0.00,VWS V14.01,2013-08-03 09:30:00,
2013-08-03 04:36:00,65.0,59.0,30.07,NE,41,2.0,7.0,80,0.00,,,0.00,weatherlink.com 1.10,2013-08-03 09:36:00,
2013-08-03 04:40:00,65.0,58.7,30.07,NNE,22,3.0,5.0,80,0.00,,---,0.00,VWS V14.01,2013-08-03 09:40:00,
2013-08-03 04:50:00,65.1,58.8,30.07,NE,45,3.0,6.0,80,0.00,,---,0.00,VWS V14.01,2013-08-03 09:50:00,
2013-08-03 04:51:00,65.0,59.0,30.07,NNW,331,2.0,5.0,80,0.00,,,0.00,weatherlink.com 1.10,2013-08-03 09:51:00,
2013-08-03 05:00:00,64.9,58.6,30.07,NNE,22,2.0,5.0,80,0.00,,---,0.00,VWS V14.01,2013-08-03 10:00:00,
2013-08-03 05:06:00,64.7,59.0,30.06,ENE,61,3.0,6.0,81,0.00,,,0.00,weatherlink.com 1.10,2013-08-03 10:06:00,
2013-08-03 05:10:00,64.8,58.8,30.06,NE,45,3.0,6.0,81,0.00,,---,0.00,VWS V14.01,2013-08-03 10:10:00,
2013-08-03 05:20:00,64.6,58.7,30.06,NNE,22,3.0,6.0,81,0.00,,---,0.00,VWS V14.01,2013-08-03 10:20:00,
2013-08-03 05:21:00,64.4,59.0,30.07,NE,49,2.0,6.0,82,0.00,,,0.00,weatherlink.com 1.10,2013-08-03 10:21:00,
2013-08-03 05:30:00,64.3,58.7,30.06,NNE,22,3.0,8.0,82,0.00,,---,0.00,VWS V14.01,2013-08-03 10:30:00,
2013-08-03 05:37:00,63.9,58.0,30.06,NE,43,1.0,8.0,82,0.00,,,0.00,weatherlink.com 1.10,2013-08-03 10:37:00,
2013-08-03 05:40:00,64.0,58.4,30.06,NE,45,3.0,6.0,82,0.00,,---,0.00,VWS V14.01,2013-08-03 10:40:00,
2013-08-03 05:50:00,63.7,58.5,30.06,NE,45,3.0,6.0,83,0.00,,---,0.00,VWS V14.01,2013-08-03 10:50:00,
2013-08-03 05:52:00,63.5,58.0,30.06,NE,56,4.0,6.0,83,0.00,,,0.00,weatherlink.com 1.10,2013-08-03 10:52:00,
2013-08-03 06:00:00,63.4,58.5,30.07,NNE,22,3.0,6.0,84,0.00,,---,0.00,VWS V14.01,2013-08-03 11:00:00,
2013-08-03 06:07:00,63.1,58.0,30.07,NNE,17,3.0,6.0,84,0.00,,,0.00,weatherlink.com 1.10,2013-08-03 11:07:00,
2013-08-03 06:10:00,63.2,58.3,30.08,North,0,3.0,6.0,84,0.00,,---,0.00,VWS V14.01,2013-08-03 11:10:00,
2013-08-03 06:20:00,63.0,58.1,30.08,NE,45,3.0,9.0,84,0.00,,---,0.00,VWS V14.01,2013-08-03 11:20:00,
2013-08-03 06:22:00,62.9,58.0,30.08,NE,56,3.0,9.0,84,0.00,,,0.00,weatherlink.com 1.10,2013-08-03 11:22:00,
2013-08-03 06:30:00,62.9,58.0,30.09,NE,45,2.0,6.0,84,0.00,,---,0.00,VWS V14.01,2013-08-03 11:30:00,
2013-08-03 06:37:00,62.8,58.0,30.09,NNE,20,1.0,4.0,84,0.00,,,0.00,weatherlink.com 1.10,2013-08-03 11:37:00,
2013-08-03 06:40:00,62.8,57.9,30.09,NNE,22,2.0,6.0,84,0.00,,---,0.00,VWS V14.01,2013-08-03 11:40:00,
2013-08-03 06:50:00,62.7,57.8,30.09,NE,45,1.0,5.0,84,0.00,,---,0.00,VWS V14.01,2013-08-03 11:50:00,
2013-08-03 06:52:00,62.9,58.0,30.09,NE,42,1.0,5.0,84,0.00,,,0.00,weatherlink.com 1.10,2013-08-03 11:52:00,
2013-08-03 07:00:00,62.9,58.0,30.10,NE,45,1.0,3.0,84,0.00,,---,0.00,VWS V14.01,2013-08-03 12:00:00,
2013-08-03 07:07:00,63.1,59.0,30.11,North,2,3.0,3.0,85,0.00,,,0.00,weatherlink.com 1.10,2013-08-03 12:07:00,
2013-08-03 07:10:00,63.0,58.4,30.11,North,0,2.0,4.0,85,0.00,,---,0.00,VWS V14.01,2013-08-03 12:10:00,
2013-08-03 07:20:00,63.1,58.2,30.11,North,0,2.0,5.0,84,0.00,,---,0.00,VWS V14.01,2013-08-03 12:20:00,
2013-08-03 07:22:00,63.3,58.0,30.11,NE,46,2.0,5.0,84,0.00,,,0.00,weatherlink.com 1.10,2013-08-03 12:22:00,
2013-08-03 07:30:00,63.4,58.5,30.12,NE,45,2.0,5.0,84,0.00,,---,0.00,VWS V14.01,2013-08-03 12:30:00,
2013-08-03 07:37:00,63.9,59.0,30.12,NNE,13,2.0,5.0,84,0.00,,,0.00,weatherlink.com 1.10,2013-08-03 12:37:00,
2013-08-03 07:40:00,63.9,58.6,30.12,NE,45,2.0,5.0,83,0.00,,---,0.00,VWS V14.01,2013-08-03 12:40:00,
2013-08-03 07:50:00,64.3,58.7,30.11,NE,45,3.0,8.0,82,0.00,,---,0.00,VWS V14.01,2013-08-03 12:50:00,
2013-08-03 07:52:00,64.6,59.0,30.11,North,3,6.0,9.0,81,0.00,,,0.00,weatherlink.com 1.10,2013-08-03 12:52:00,
2013-08-03 08:00:00,64.7,58.7,30.11,NNE,22,4.0,9.0,81,0.00,,---,0.00,VWS V14.01,2013-08-03 13:00:00,
2013-08-03 08:07:00,65.1,59.0,30.12,ENE,72,4.0,9.0,80,0.00,,,0.00,weatherlink.com 1.10,2013-08-03 13:07:00,
2013-08-03 08:10:00,63.0,58.4,30.11,North,0,2.0,4.0,85,0.00,,---,0.00,VWS V14.01,2013-08-03 13:10:00,
2013-08-03 08:20:00,65.5,58.8,30.12,NE,51,2.0,4.0,79,0.00,,---,0.00,VWS V14.01,2013-08-03 13:20:00,
2013-08-03 08:25:00,65.6,58.6,30.12,NE,55,3.0,6.0,78,0.00,,---,0.00,VWS V14.01,2013-08-03 13:25:00,
2013-08-03 08:30:00,65.8,59.1,30.12,NE,38,3.0,6.0,79,0.00,,---,0.00,VWS V14.01,2013-08-03 13:30:00,
2013-08-03 08:35:00,65.9,58.5,30.13,East,83,4.0,9.0,77,0.00,,---,0.00,VWS V14.01,2013-08-03 13:35:00,
2013-08-03 08:39:00,65.9,58.5,30.13,NE,41,3.0,9.0,77,0.00,,---,0.00,VWS V14.01,2013-08-03 13:39:00,
2013-08-03 08:40:00,63.9,58.6,30.12,NE,45,2.0,5.0,83,0.00,,---,0.00,VWS V14.01,2013-08-03 13:40:00,
2013-08-03 08:50:00,64.3,58.7,30.11,NE,45,3.0,8.0,82,0.00,,---,0.00,VWS V14.01,2013-08-03 13:50:00,
2013-08-03 08:55:00,66.8,59.0,30.13,SSE,148,1.0,6.0,75,0.00,,,0.00,weatherlink.com 1.10,2013-08-03 13:55:00,
2013-08-03 09:00:00,64.7,58.7,30.11,NNE,22,4.0,9.0,81,0.00,,---,0.00,VWS V14.01,2013-08-03 14:00:00,
2013-08-03 09:10:00,68.1,58.0,30.14,ENE,68,5.0,8.0,71,0.00,,,0.00,weatherlink.com 1.10,2013-08-03 14:10:00,
2013-08-03 09:18:00,68.9,57.9,30.14,NE,39,6.0,9.0,68,0.00,,---,0.00,VWS V14.01,2013-08-03 14:18:00,
2013-08-03 09:20:00,69.0,58.0,30.14,ENE,75,3.0,9.0,68,0.00,,---,0.00,VWS V14.01,2013-08-03 14:20:00,
2013-08-03 09:30:00,69.3,57.5,30.14,ENE,68,5.0,10.0,66,0.00,,---,0.00,VWS V14.01,2013-08-03 14:30:00,
2013-08-03 09:40:00,70.0,57.3,30.15,ENE,68,5.0,9.0,64,0.00,,---,0.00,VWS V14.01,2013-08-03 14:40:00,
2013-08-03 09:43:00,70.4,58.0,30.15,ENE,76,3.0,9.0,65,0.00,,,0.00,weatherlink.com 1.10,2013-08-03 14:43:00,
2013-08-03 09:50:00,70.8,57.6,30.16,ENE,68,3.0,9.0,63,0.00,,---,0.00,VWS V14.01,2013-08-03 14:50:00,
2013-08-03 10:00:00,71.2,58.0,30.16,East,90,5.0,10.0,63,0.00,,---,0.00,VWS V14.01,2013-08-03 15:00:00,
2013-08-03 10:01:00,71.4,58.0,30.16,ESE,116,2.0,10.0,63,0.00,,,0.00,weatherlink.com 1.10,2013-08-03 15:01:00,
2013-08-03 10:10:00,71.8,56.7,30.16,NE,45,5.0,12.0,59,0.00,,---,0.00,VWS V14.01,2013-08-03 15:10:00,
2013-08-03 10:17:00,72.1,56.0,30.16,NE,52,8.0,11.0,58,0.00,,,0.00,weatherlink.com 1.10,2013-08-03 15:17:00,
2013-08-03 10:20:00,72.0,56.9,30.16,NE,45,6.0,11.0,59,0.00,,---,0.00,VWS V14.01,2013-08-03 15:20:00,
2013-08-03 10:30:00,72.4,55.8,30.16,NE,45,5.0,10.0,56,0.00,,---,0.00,VWS V14.01,2013-08-03 15:30:00,
2013-08-03 10:35:00,72.6,56.0,30.16,East,95,6.0,9.0,56,0.00,,,0.00,weatherlink.com 1.10,2013-08-03 15:35:00,
2013-08-03 10:40:00,72.6,56.5,30.16,NE,45,6.0,10.0,57,0.00,,---,0.00,VWS V14.01,2013-08-03 15:40:00,
2013-08-03 10:50:00,73.0,56.4,30.17,NE,45,5.0,10.0,56,0.00,,---,0.00,VWS V14.01,2013-08-03 15:50:00,
2013-08-03 11:00:00,73.6,56.5,30.17,ENE,68,3.0,9.0,55,0.00,,---,0.00,VWS V14.01,2013-08-03 16:00:00,
2013-08-03 11:08:00,74.6,57.0,30.18,ENE,78,3.0,7.0,54,0.00,,,0.00,weatherlink.com 1.10,2013-08-03 16:08:00,
2013-08-03 11:10:00,74.3,56.1,30.17,NE,45,4.0,9.0,53,0.00,,---,0.00,VWS V14.01,2013-08-03 16:10:00,
2013-08-03 11:20:00,75.0,55.7,30.17,NE,45,4.0,8.0,51,0.00,,---,0.00,VWS V14.01,2013-08-03 16:20:00,
2013-08-03 11:30:00,75.1,56.3,30.18,NE,45,5.0,9.0,52,0.00,,---,0.00,VWS V14.01,2013-08-03 16:30:00,
2013-08-03 11:40:00,75.3,56.0,30.18,SE,141,1.0,9.0,52,0.00,,,0.00,weatherlink.com 1.10,2013-08-03 16:40:00,
2013-08-03 11:50:00,75.6,56.8,30.17,SE,135,3.0,7.0,52,0.00,,---,0.00,VWS V14.01,2013-08-03 16:50:00,
2013-08-03 11:56:00,75.5,55.0,30.18,NE,53,5.0,8.0,50,0.00,,,0.00,weatherlink.com 1.10,2013-08-03 16:56:00,
2013-08-03 12:00:00,75.7,56.3,30.17,NE,45,4.0,8.0,51,0.00,,---,0.00,VWS V14.01,2013-08-03 17:00:00,
2013-08-03 12:10:00,75.5,56.1,30.17,NE,45,3.0,7.0,51,0.00,,---,0.00,VWS V14.01,2013-08-03 17:10:00,
2013-08-03 12:11:00,75.3,56.0,30.17,ESE,115,4.0,7.0,52,0.00,,,0.00,weatherlink.com 1.10,2013-08-03 17:11:00,
2013-08-03 12:20:00,75.4,56.0,30.18,ESE,112,3.0,7.0,51,0.00,,---,0.00,VWS V14.01,2013-08-03 17:20:00,
2013-08-03 12:25:00,75.6,57.0,30.19,NE,38,2.0,6.0,52,0.00,,,0.00,weatherlink.com 1.10,2013-08-03 17:25:00,
2013-08-03 12:30:00,75.7,56.3,30.19,NE,45,3.0,7.0,51,0.00,,---,0.00,VWS V14.01,2013-08-03 17:30:00,
2013-08-03 12:40:00,76.0,55.5,30.19,NE,45,3.0,8.0,49,0.00,,---,0.00,VWS V14.01,2013-08-03 17:40:00,
2013-08-03 12:41:00,76.4,56.0,30.19,NNE,27,7.0,7.0,50,0.00,,,0.00,weatherlink.com 1.10,2013-08-03 17:41:00,
2013-08-03 12:50:00,76.3,57.4,30.18,NE,45,4.0,7.0,52,0.00,,---,0.00,VWS V14.01,2013-08-03 17:50:00,
2013-08-03 12:56:00,77.1,57.0,30.18,East,80,3.0,7.0,50,0.00,,,0.00,weatherlink.com 1.10,2013-08-03 17:56:00,
2013-08-03 13:00:00,76.9,55.7,30.18,NE,45,3.0,7.0,48,0.00,,---,0.00,VWS V14.01,2013-08-03 18:00:00,
2013-08-03 13:10:00,77.3,56.1,30.18,ENE,68,3.0,7.0,48,0.00,,---,0.00,VWS V14.01,2013-08-03 18:10:00,
2013-08-03 13:11:00,77.7,58.0,30.18,NE,54,1.0,7.0,50,0.00,,,0.00,weatherlink.com 1.10,2013-08-03 18:11:00,
2013-08-03 13:20:00,77.6,57.5,30.18,NE,45,3.0,6.0,50,0.00,,---,0.00,VWS V14.01,2013-08-03 18:20:00,
2013-08-03 13:29:00,76.9,56.0,30.18,East,79,2.0,6.0,49,0.00,,,0.00,weatherlink.com 1.10,2013-08-03 18:29:00,
2013-08-03 13:30:00,77.1,57.0,30.17,ENE,68,3.0,6.0,50,0.00,,---,0.00,VWS V14.01,2013-08-03 18:30:00,
2013-08-03 13:40:00,76.8,56.8,30.17,NE,45,3.0,8.0,50,0.00,,---,0.00,VWS V14.01,2013-08-03 18:40:00,
2013-08-03 13:46:00,76.5,57.0,30.18,NE,45,2.0,8.0,51,0.00,,,0.00,weatherlink.com 1.10,2013-08-03 18:46:00,
2013-08-03 13:50:00,76.5,56.5,30.17,NNE,22,4.0,8.0,50,0.00,,---,0.00,VWS V14.01,2013-08-03 18:50:00,
2013-08-03 14:00:00,76.4,56.4,30.18,NE,45,4.0,7.0,50,0.00,,---,0.00,VWS V14.01,2013-08-03 19:00:00,
2013-08-03 14:04:00,76.2,56.0,30.17,NE,56,5.0,6.0,50,0.00,,,0.00,weatherlink.com 1.10,2013-08-03 19:04:00,
2013-08-03 14:10:00,76.3,56.9,30.18,NE,45,3.0,6.0,51,0.00,,---,0.00,VWS V14.01,2013-08-03 19:10:00,
2013-08-03 14:20:00,76.2,58.0,30.18,North,4,2.0,7.0,53,0.00,,,0.00,weatherlink.com 1.10,2013-08-03 19:20:00,
2013-08-03 14:30:00,75.8,58.5,30.18,NE,45,2.0,8.0,55,0.00,,---,0.00,VWS V14.01,2013-08-03 19:30:00,
2013-08-03 14:38:00,76.3,58.0,30.17,NNE,17,0.0,3.0,53,0.00,,,0.00,weatherlink.com 1.10,2013-08-03 19:38:00,
2013-08-03 14:40:00,76.1,58.3,30.17,NNE,22,1.0,3.0,54,0.00,,---,0.00,VWS V14.01,2013-08-03 19:40:00,
2013-08-03 14:50:00,76.6,57.1,30.16,North,0,1.0,4.0,51,0.00,,---,0.00,VWS V14.01,2013-08-03 19:50:00,
2013-08-03 14:56:00,75.9,58.0,30.16,North,350,0.0,5.0,54,0.00,,,0.00,weatherlink.com 1.10,2013-08-03 19:56:00,
2013-08-03 15:00:00,76.0,56.6,30.16,North,0,2.0,5.0,51,0.00,,---,0.00,VWS V14.01,2013-08-03 20:00:00,
2013-08-03 15:10:00,75.9,57.0,30.16,ENE,68,2.0,5.0,52,0.00,,---,0.00,VWS V14.01,2013-08-03 20:10:00,
2013-08-03 15:13:00,75.6,57.0,30.15,ENE,70,2.0,5.0,52,0.00,,,0.00,weatherlink.com 1.10,2013-08-03 20:13:00,
2013-08-03 15:20:00,75.8,56.4,30.15,ENE,68,2.0,4.0,51,0.00,,---,0.00,VWS V14.01,2013-08-03 20:20:00,
2013-08-03 15:29:00,76.0,57.0,30.17,ENE,69,3.0,7.0,52,0.00,,,0.00,weatherlink.com 1.10,2013-08-03 20:29:00,
2013-08-03 15:30:00,76.1,57.2,30.17,North,0,3.0,7.0,52,0.00,,---,0.00,VWS V14.01,2013-08-03 20:30:00,
2013-08-03 15:40:00,75.9,56.5,30.16,North,0,2.0,5.0,51,0.00,,---,0.00,VWS V14.01,2013-08-03 20:40:00,
2013-08-03 15:47:00,75.9,56.0,30.16,North,4,1.0,5.0,51,0.00,,,0.00,weatherlink.com 1.10,2013-08-03 20:47:00,
2013-08-03 15:50:00,76.0,58.2,30.15,North,0,2.0,5.0,54,0.00,,---,0.00,VWS V14.01,2013-08-03 20:50:00,
2013-08-03 16:00:00,76.0,57.1,30.14,NE,45,3.0,7.0,52,0.00,,---,0.00,VWS V14.01,2013-08-03 21:00:00,
2013-08-03 16:04:00,76.1,58.0,30.13,East,87,3.0,6.0,53,0.00,,,0.00,weatherlink.com 1.10,2013-08-03 21:04:00,
2013-08-03 16:10:00,76.2,57.3,30.13,ENE,68,2.0,6.0,52,0.00,,---,0.00,VWS V14.01,2013-08-03 21:10:00,
2013-08-03 16:20:00,76.8,57.3,30.15,NNE,22,2.0,6.0,51,0.00,,---,0.00,VWS V14.01,2013-08-03 21:20:00,
2013-08-03 16:21:00,77.4,58.0,30.15,NNE,30,1.0,6.0,52,0.00,,,0.00,weatherlink.com 1.10,2013-08-03 21:21:00,
2013-08-03 16:30:00,77.5,56.9,30.14,NNE,22,3.0,8.0,49,0.00,,---,0.00,VWS V14.01,2013-08-03 21:30:00,
2013-08-03 16:39:00,76.9,57.0,30.14,ENE,66,0.0,7.0,51,0.00,,,0.00,weatherlink.com 1.10,2013-08-03 21:39:00,
2013-08-03 16:40:00,77.0,57.0,30.14,NE,45,3.0,7.0,50,0.00,,---,0.00,VWS V14.01,2013-08-03 21:40:00,
2013-08-03 16:50:00,76.7,57.8,30.12,NE,45,5.0,11.0,52,0.00,,---,0.00,VWS V14.01,2013-08-03 21:50:00,
2013-08-03 16:55:00,76.4,58.0,30.12,NE,41,2.0,7.0,54,0.00,,,0.00,weatherlink.com 1.10,2013-08-03 21:55:00,
2013-08-03 17:00:00,76.4,58.5,30.13,NNE,22,3.0,8.0,54,0.00,,---,0.00,VWS V14.01,2013-08-03 22:00:00,
2013-08-03 17:10:00,76.3,59.0,30.14,NNE,26,5.0,11.0,55,0.00,,,0.00,weatherlink.com 1.10,2013-08-03 22:10:00,
2013-08-03 17:20:00,76.2,58.4,30.13,NNE,22,4.0,10.0,54,0.00,,---,0.00,VWS V14.01,2013-08-03 22:20:00,
2013-08-03 17:25:00,76.4,59.0,30.11,SE,143,3.0,10.0,55,0.00,,,0.00,weatherlink.com 1.10,2013-08-03 22:25:00,
2013-08-03 17:30:00,76.3,57.9,30.11,NE,45,3.0,7.0,53,0.00,,---,0.00,VWS V14.01,2013-08-03 22:30:00,
2013-08-03 17:40:00,76.1,59.0,30.11,NNE,20,4.0,6.0,55,0.00,,,0.00,weatherlink.com 1.10,2013-08-03 22:40:00,
2013-08-03 17:50:00,76.0,58.7,30.11,NE,45,4.0,8.0,55,0.00,,---,0.00,VWS V14.01,2013-08-03 22:50:00,
2013-08-03 17:55:00,75.9,58.0,30.11,ENE,62,5.0,8.0,55,0.00,,,0.00,weatherlink.com 1.10,2013-08-03 22:55:00,
2013-08-03 18:00:00,75.9,58.6,30.11,NE,45,5.0,10.0,55,0.00,,---,0.00,VWS V14.01,2013-08-03 23:00:00,
2013-08-03 18:10:00,75.6,59.0,30.13,NNW,347,10.0,10.0,56,0.00,,,0.00,weatherlink.com 1.10,2013-08-03 23:10:00,
2013-08-03 18:20:00,75.5,59.2,30.14,NNE,22,4.0,10.0,57,0.00,,---,0.00,VWS V14.01,2013-08-03 23:20:00,
2013-08-03 18:25:00,75.5,59.0,30.15,NNE,32,3.0,8.0,56,0.00,,,0.00,weatherlink.com 1.10,2013-08-03 23:25:00,
2013-08-03 18:30:00,75.5,58.2,30.14,NNE,22,4.0,8.0,55,0.00,,---,0.00,VWS V14.01,2013-08-03 23:30:00,
2013-08-03 18:40:00,76.1,58.0,30.15,North,6,8.0,9.0,53,0.00,,,0.00,weatherlink.com 1.10,2013-08-03 23:40:00,
2013-08-03 18:50:00,76.0,58.2,30.15,North,0,5.0,10.0,54,0.00,,---,0.00,VWS V14.01,2013-08-03 23:50:00,
2013-08-03 18:55:00,75.8,58.0,30.14,NNE,15,3.0,9.0,55,0.00,,,0.00,weatherlink.com 1.10,2013-08-03 23:55:00,
2013-08-03 19:00:00,75.8,58.5,30.14,North,0,4.0,8.0,55,0.00,,---,0.00,VWS V14.01,2013-08-04 00:00:00,
2013-08-03 19:10:00,75.5,58.0,30.14,NNE,20,5.0,9.0,54,0.00,,,0.00,weatherlink.com 1.10,2013-08-04 00:10:00,
2013-08-03 19:20:00,75.3,58.0,30.15,NE,45,4.0,8.0,55,0.00,,---,0.00,VWS V14.01,2013-08-04 00:20:00,
2013-08-03 19:25:00,75.0,58.0,30.14,North,11,5.0,7.0,56,0.00,,,0.00,weatherlink.com 1.10,2013-08-04 00:25:00,
2013-08-03 19:30:00,75.0,58.3,30.14,NE,45,4.0,8.0,56,0.00,,---,0.00,VWS V14.01,2013-08-04 00:30:00,
2013-08-03 19:40:00,74.1,58.0,30.14,ENE,78,5.0,11.0,57,0.00,,,0.00,weatherlink.com 1.10,2013-08-04 00:40:00,
2013-08-03 19:50:00,73.8,58.1,30.14,NNE,22,6.0,11.0,58,0.00,,---,0.00,VWS V14.01,2013-08-04 00:50:00,
2013-08-03 19:55:00,73.4,58.0,30.15,NNE,25,4.0,10.0,58,0.00,,,0.00,weatherlink.com 1.10,2013-08-04 00:55:00,
2013-08-03 20:00:00,73.4,57.7,30.15,NNE,22,5.0,10.0,58,0.00,,---,0.00,VWS V14.01,2013-08-04 01:00:00,
2013-08-03 20:10:00,73.0,58.0,30.15,NE,41,2.0,9.0,59,0.00,,,0.00,weatherlink.com 1.10,2013-08-04 01:10:00,
2013-08-03 20:20:00,72.8,57.7,30.16,NNE,22,2.0,5.0,59,0.00,,---,0.00,VWS V14.01,2013-08-04 01:20:00,
2013-08-03 20:25:00,72.3,58.0,30.16,NNE,28,0.0,5.0,60,0.00,,,0.00,weatherlink.com 1.10,2013-08-04 01:25:00,
2013-08-03 20:30:00,72.3,57.7,30.16,North,0,1.0,3.0,60,0.00,,---,0.00,VWS V14.01,2013-08-04 01:30:00,
2013-08-03 20:40:00,71.5,58.0,30.16,North,6,1.0,2.0,62,0.00,,,0.00,weatherlink.com 1.10,2013-08-04 01:40:00,
2013-08-03 20:50:00,71.2,58.0,30.17,North,0,1.0,3.0,63,0.00,,---,0.00,VWS V14.01,2013-08-04 01:50:00,
2013-08-03 20:55:00,70.4,58.0,30.17,North,360,0.0,3.0,65,0.00,,,0.00,weatherlink.com 1.10,2013-08-04 01:55:00,
2013-08-03 21:00:00,70.4,58.1,30.17,North,0,1.0,3.0,65,0.00,,---,0.00,VWS V14.01,2013-08-04 02:00:00,
2013-08-03 21:10:00,69.9,58.0,30.17,North,358,1.0,5.0,65,0.00,,,0.00,weatherlink.com 1.10,2013-08-04 02:10:00,
2013-08-03 21:20:00,69.7,57.4,30.17,NNE,22,1.0,3.0,65,0.00,,---,0.00,VWS V14.01,2013-08-04 02:20:00,
2013-08-03 21:25:00,69.5,57.0,30.18,North,9,0.0,3.0,65,0.00,,,0.00,weatherlink.com 1.10,2013-08-04 02:25:00,
2013-08-03 21:30:00,69.5,57.7,30.18,North,0,1.0,3.0,66,0.00,,---,0.00,VWS V14.01,2013-08-04 02:30:00,
2013-08-03 21:40:00,69.0,58.0,30.18,NNE,15,0.0,2.0,67,0.00,,,0.00,weatherlink.com 1.10,2013-08-04 02:40:00,
2013-08-03 21:50:00,68.8,57.8,30.19,NNE,22,1.0,2.0,68,0.00,,---,0.00,VWS V14.01,2013-08-04 02:50:00,
2013-08-03 21:55:00,68.3,58.0,30.19,North,7,0.0,1.0,69,0.00,,,0.00,weatherlink.com 1.10,2013-08-04 02:55:00,
2013-08-03 22:00:00,68.3,58.2,30.19,North,0,0.0,1.0,70,0.00,,---,0.00,VWS V14.01,2013-08-04 03:00:00,
2013-08-03 22:10:00,67.7,58.0,30.20,North,10,1.0,2.0,70,0.00,,,0.00,weatherlink.com 1.10,2013-08-04 03:10:00,
2013-08-03 22:20:00,67.6,57.9,30.20,NNE,22,1.0,2.0,71,0.00,,---,0.00,VWS V14.01,2013-08-04 03:20:00,
2013-08-03 22:25:00,67.3,58.0,30.20,North,5,0.0,2.0,72,0.00,,,0.00,weatherlink.com 1.10,2013-08-04 03:25:00,
2013-08-03 22:30:00,67.3,58.0,30.19,North,0,1.0,2.0,72,0.00,,---,0.00,VWS V14.01,2013-08-04 03:30:00,
2013-08-03 22:40:00,67.0,58.0,30.20,NNE,26,0.0,2.0,72,0.00,,,0.00,weatherlink.com 1.10,2013-08-04 03:40:00,
2013-08-03 22:50:00,67.1,57.8,30.20,NNE,22,1.0,2.0,72,0.00,,---,0.00,VWS V14.01,2013-08-04 03:50:00,
2013-08-03 22:55:00,67.1,58.0,30.20,NNE,23,2.0,2.0,72,0.00,,,0.00,weatherlink.com 1.10,2013-08-04 03:55:00,
2013-08-03 23:00:00,67.1,57.8,30.20,NNE,22,1.0,2.0,72,0.00,,---,0.00,VWS V14.01,2013-08-04 04:00:00,
2013-08-03 23:10:00,66.7,57.0,30.20,NE,49,0.0,1.0,72,0.00,,,0.00,weatherlink.com 1.10,2013-08-04 04:10:00,
2013-08-03 23:20:00,66.5,57.6,30.20,NE,45,0.0,1.0,73,0.00,,---,0.00,VWS V14.01,2013-08-04 04:20:00,
2013-08-03 23:25:00,66.1,58.0,30.20,North,357,1.0,2.0,74,0.00,,,0.00,weatherlink.com 1.10,2013-08-04 04:25:00,
2013-08-03 23:30:00,66.1,57.6,30.20,North,0,0.0,2.0,74,0.00,,---,0.00,VWS V14.01,2013-08-04 04:30:00,
2013-08-03 23:40:00,65.8,57.0,30.20,North,8,1.0,2.0,74,0.00,,,0.00,weatherlink.com 1.10,2013-08-04 04:40:00,
2013-08-03 23:50:00,65.8,57.7,30.21,North,0,0.0,1.0,75,0.00,,---,0.00,VWS V14.01,2013-08-04 04:50:00,
2013-08-03 23:55:00,65.6,58.0,30.20,North,8,0.0,1.0,75,0.00,,,0.00,weatherlink.com 1.10,2013-08-04 04:55:00,